When you browse on this site, cookies collect data to enhance your experience and personalize the content and advertising you see.
Visit our Privacy Policy to learn more. By continuing to use the site, you agree to this use of cookies and data.
  • In Czech Republic
  • List of Countries
  • For 7 days
  • Water Temperature
  • Satellite Maps
  • Weather Map
  • Weather Widgets
  • user-avatar
    Login

    Hourly Weather Changzhou

    Today, 25 March, Monday

    Time Temperature Precipitation Wind Pressure Humidity
    00:00 +10°C° 0.2 mm 4 mps 763 mmHg 69%
    01:00 +10°C° 0.2 mm 3 mps 763 mmHg 74%
    02:00 +10°C° 0 mm 2 mps 763 mmHg 77%
    03:00 +9°C° 0.3 mm 2 mps 763 mmHg 79%
    04:00 +9°C° 0.3 mm 2 mps 763 mmHg 82%
    05:00 +9°C° 0.3 mm 2 mps 763 mmHg 85%
    06:00 +10°C° 0.1 mm 2 mps 763 mmHg 83%
    07:00 +10°C° 0.1 mm 2 mps 763 mmHg 81%
    08:00 +12°C° 0 mm 1 mps 763 mmHg 75%
    09:00 +13°C° 0 mm 2 mps 763 mmHg 68%
    10:00 +15°C° 0 mm 2 mps 763 mmHg 60%
    11:00 +16°C° 0 mm 2 mps 763 mmHg 53%
    12:00 +17°C° 0 mm 2 mps 763 mmHg 50%
    13:00 +18°C° 0 mm 2 mps 763 mmHg 47%
    14:00 +19°C° 0 mm 2 mps 763 mmHg 44%
    15:00 +19°C° 0 mm 2 mps 763 mmHg 45%
    16:00 +19°C° 0 mm 2 mps 762 mmHg 47%
    17:00 +19°C° 0 mm 2 mps 762 mmHg 48%
    18:00 +17°C° 0 mm 2 mps 763 mmHg 52%
    19:00 +16°C° 0 mm 2 mps 763 mmHg 56%
    20:00 +14°C° 0 mm 2 mps 763 mmHg 60%
    21:00 +14°C° 0 mm 2 mps 764 mmHg 63%
    22:00 +13°C° 0 mm 2 mps 764 mmHg 66%
    23:00 +13°C° 0 mm 2 mps 764 mmHg 69%

    Tomorrow, 26 March, Tuesday

    Time Temperature Precipitation Wind Pressure Humidity
    00:00 +13°C° 0 mm 2 mps 764 mmHg 72%
    01:00 +12°C° 0 mm 2 mps 764 mmHg 75%
    02:00 +12°C° 0 mm 2 mps 764 mmHg 78%
    03:00 +12°C° 0 mm 2 mps 764 mmHg 80%
    04:00 +12°C° 0 mm 2 mps 764 mmHg 81%
    05:00 +10°C° 0 mm 2 mps 764 mmHg 82%
    06:00 +13°C° 0 mm 2 mps 765 mmHg 78%
    07:00 +14°C° 0 mm 2 mps 765 mmHg 74%
    08:00 +15°C° 0 mm 2 mps 765 mmHg 70%
    09:00 +17°C° 0 mm 2 mps 765 mmHg 62%
    10:00 +19°C° 0 mm 2 mps 765 mmHg 55%
    11:00 +21°C° 0 mm 2 mps 765 mmHg 47%
    12:00 +21°C° 0 mm 3 mps 765 mmHg 45%
    13:00 +22°C° 0 mm 3 mps 764 mmHg 43%
    14:00 +22°C° 0 mm 3 mps 764 mmHg 41%
    15:00 +21°C° 0 mm 3 mps 764 mmHg 44%
    16:00 +21°C° 0 mm 3 mps 763 mmHg 46%
    17:00 +20°C° 0 mm 3 mps 763 mmHg 49%
    18:00 +19°C° 0 mm 3 mps 763 mmHg 52%
    19:00 +17°C° 0 mm 3 mps 763 mmHg 55%
    20:00 +15°C° 0 mm 4 mps 763 mmHg 58%
    21:00 +14°C° 0 mm 4 mps 763 mmHg 59%
    22:00 +14°C° 0 mm 3 mps 763 mmHg 61%
    23:00 +13°C° 0 mm 3 mps 764 mmHg 62%

    Day after tomorrow, 27 March, Wednesday

    Time Temperature Precipitation Wind Pressure Humidity
    00:00 +13°C° 0 mm 3 mps 763 mmHg 65%
    01:00 +12°C° 0 mm 3 mps 763 mmHg 67%
    02:00 +12°C° 0 mm 3 mps 762 mmHg 70%
    03:00 +12°C° 0 mm 3 mps 762 mmHg 72%
    04:00 +12°C° 0 mm 3 mps 761 mmHg 73%
    05:00 +13°C° 0 mm 2 mps 761 mmHg 74%
    06:00 +14°C° 0 mm 2 mps 761 mmHg 73%
    07:00 +15°C° 0 mm 2 mps 761 mmHg 72%
    08:00 +16°C° 0 mm 2 mps 762 mmHg 71%
    09:00 +16°C° 0 mm 2 mps 761 mmHg 69%
    10:00 +17°C° 0 mm 2 mps 761 mmHg 68%
    11:00 +17°C° 0 mm 2 mps 761 mmHg 66%
    12:00 +17°C° 0.1 mm 2 mps 761 mmHg 69%
    13:00 +17°C° 0.1 mm 2 mps 760 mmHg 72%
    14:00 +17°C° 0.1 mm 2 mps 760 mmHg 76%
    15:00 +17°C° 0.2 mm 2 mps 759 mmHg 79%
    16:00 +16°C° 0.2 mm 2 mps 759 mmHg 83%
    17:00 +16°C° 0.2 mm 2 mps 759 mmHg 86%
    18:00 +16°C° 0 mm 1 mps 759 mmHg 88%
    19:00 +15°C° 0 mm 1 mps 760 mmHg 90%
    20:00 +14°C° 0 mm 0 mps 760 mmHg 92%
    21:00 +14°C° 0 mm 0 mps 760 mmHg 92%
    22:00 +15°C° 0 mm 1 mps 760 mmHg 93%
    23:00 +15°C° 0 mm 1 mps 760 mmHg 94%

    28 March, Thursday

    Time Temperature Precipitation Wind Pressure Humidity
    00:00 +15°C° 0 mm 1 mps 760 mmHg 94%
    01:00 +14°C° 0 mm 1 mps 760 mmHg 95%
    02:00 +13°C° 0 mm 0 mps 760 mmHg 95%
    03:00 +14°C° 0 mm 1 mps 760 mmHg 96%
    04:00 +13°C° 0 mm 2 mps 759 mmHg 96%
    05:00 +13°C° 0 mm 2 mps 759 mmHg 96%
    06:00 +12°C° 0 mm 3 mps 760 mmHg 92%
    07:00 +13°C° 0 mm 4 mps 760 mmHg 88%
    08:00 +13°C° 0 mm 5 mps 760 mmHg 84%
    09:00 +14°C° 0 mm 4 mps 760 mmHg 80%
    10:00 +15°C° 0 mm 4 mps 760 mmHg 77%
    11:00 +15°C° 0 mm 4 mps 761 mmHg 73%
    12:00 +15°C° 0.3 mm 4 mps 760 mmHg 74%
    13:00 +15°C° 0.3 mm 4 mps 760 mmHg 75%
    14:00 +14°C° 0.3 mm 4 mps 759 mmHg 77%
    15:00 +14°C° 0.1 mm 4 mps 759 mmHg 77%
    16:00 +14°C° 0.1 mm 3 mps 759 mmHg 77%
    17:00 +13°C° 0.1 mm 3 mps 759 mmHg 77%
    18:00 +13°C° 0 mm 3 mps 760 mmHg 78%
    19:00 +12°C° 0 mm 3 mps 760 mmHg 79%
    20:00 +11°C° 0 mm 3 mps 761 mmHg 79%
    21:00 +11°C° 0 mm 3 mps 761 mmHg 80%
    22:00 +10°C° 0 mm 3 mps 761 mmHg 81%
    23:00 +9°C° 0 mm 3 mps 761 mmHg 82%

    29 March, Friday

    Time Temperature Precipitation Wind Pressure Humidity
    00:00 +9°C° 0 mm 3 mps 761 mmHg 83%
    01:00 +9°C° 0 mm 2 mps 761 mmHg 83%
    02:00 +8°C° 0 mm 2 mps 761 mmHg 84%
    03:00 +8°C° 0 mm 2 mps 761 mmHg 85%
    04:00 +8°C° 0 mm 2 mps 761 mmHg 85%
    05:00 +8°C° 0 mm 2 mps 761 mmHg 86%
    06:00 +9°C° 0 mm 3 mps 761 mmHg 83%
    07:00 +10°C° 0 mm 3 mps 762 mmHg 80%
    08:00 +11°C° 0 mm 3 mps 763 mmHg 77%
    09:00 +13°C° 0 mm 3 mps 763 mmHg 71%
    10:00 +16°C° 0 mm 3 mps 763 mmHg 66%
    11:00 +18°C° 0 mm 2 mps 763 mmHg 61%
    12:00 +18°C° 0 mm 2 mps 762 mmHg 58%
    13:00 +19°C° 0 mm 2 mps 762 mmHg 55%
    14:00 +21°C° 0 mm 1 mps 762 mmHg 52%
    15:00 +21°C° 0 mm 1 mps 762 mmHg 55%
    16:00 +20°C° 0 mm 1 mps 761 mmHg 58%
    17:00 +20°C° 0 mm 1 mps 761 mmHg 61%
    18:00 +18°C° 0 mm 1 mps 762 mmHg 64%
    19:00 +16°C° 0 mm 2 mps 762 mmHg 67%
    20:00 +15°C° 0 mm 2 mps 763 mmHg 71%
    21:00 +15°C° 0 mm 2 mps 763 mmHg 75%
    22:00 +14°C° 0 mm 2 mps 763 mmHg 79%
    23:00 +14°C° 0 mm 2 mps 763 mmHg 83%

    30 March, Saturday

    Time Temperature Precipitation Wind Pressure Humidity
    00:00 +13°C° 0.1 mm 2 mps 763 mmHg 86%
    01:00 +13°C° 0.1 mm 2 mps 762 mmHg 88%
    02:00 +13°C° 0.1 mm 1 mps 762 mmHg 91%
    03:00 +13°C° 0 mm 2 mps 762 mmHg 90%
    04:00 +12°C° 0 mm 2 mps 762 mmHg 90%
    05:00 +12°C° 0 mm 2 mps 763 mmHg 89%
    06:00 +12°C° 0 mm 3 mps 763 mmHg 85%
    07:00 +13°C° 0 mm 4 mps 764 mmHg 81%
    08:00 +14°C° 0 mm 5 mps 765 mmHg 76%
    09:00 +14°C° 0 mm 5 mps 765 mmHg 69%
    10:00 +15°C° 0 mm 6 mps 765 mmHg 62%
    11:00 +15°C° 0 mm 7 mps 766 mmHg 55%
    12:00 +15°C° 0 mm 7 mps 766 mmHg 47%
    13:00 +15°C° 0 mm 7 mps 766 mmHg 40%
    14:00 +15°C° 0 mm 7 mps 766 mmHg 32%
    15:00 +15°C° 0 mm 6 mps 766 mmHg 33%
    16:00 +14°C° 0 mm 6 mps 767 mmHg 34%
    17:00 +13°C° 0 mm 5 mps 767 mmHg 35%
    18:00 +12°C° 0 mm 4 mps 767 mmHg 35%
    19:00 +11°C° 0 mm 3 mps 768 mmHg 35%
    20:00 +9°C° 0 mm 3 mps 769 mmHg 35%
    21:00 +9°C° 0 mm 2 mps 769 mmHg 36%
    22:00 +9°C° 0 mm 1 mps 769 mmHg 36%
    23:00 +9°C° 0 mm 1 mps 769 mmHg 37%
    Show more